| time (UTC) | temp F | wind direction | speed knots | gust knots | rain 1hr in | rain 24hr in | rain mn in | humidity % | barometer mb |
| 20260905223506 | 64 | 269 | 6.1 | 13.0 | 0.00 | 0.00 | 0.00 | 51 | 1021.5 |
| 20260905223006 | 64 | 277 | 6.1 | 13.0 | 0.00 | 0.00 | 0.00 | 52 | 1021.5 |
| 20260905222527 | 63 | 277 | 5.2 | 8.7 | 0.00 | 0.00 | 0.00 | 54 | 1021.5 |
| 20260905222006 | 62 | 264 | 5.2 | 9.6 | 0.00 | 0.00 | 0.00 | 57 | 1021.4 |
| 20260905221506 | 61 | 260 | 5.2 | 9.6 | 0.00 | 0.00 | 0.00 | 60 | 1021.5 |
| 20260905221006 | 60 | 274 | 2.6 | 7.0 | 0.00 | 0.00 | 0.00 | 62 | 1021.4 |
| 20260905220506 | 59 | 265 | 1.7 | 7.0 | 0.00 | 0.00 | 0.00 | 63 | 1021.5 |
| 20260905220006 | 59 | 257 | 1.7 | 7.0 | 0.00 | 0.00 | 0.00 | 65 | 1021.4 |
| 20260905215506 | 59 | 285 | 0.9 | 3.5 | 0.00 | 0.00 | 0.00 | 65 | 1021.4 |
| 20260905215006 | 59 | 291 | 1.7 | 3.5 | 0.00 | 0.00 | 0.00 | 65 | 1021.3 |
| 20260905214506 | 59 | 66 | 1.7 | 3.5 | 0.00 | 0.00 | 0.00 | 65 | 1021.2 |
| 20260905214006 | 59 | 45 | 0.9 | 3.5 | 0.00 | 0.00 | 0.00 | 64 | 1021.3 |
| 20260905213527 | 59 | 37 | 0.9 | 3.5 | 0.00 | 0.00 | 0.00 | 64 | 1021.4 |
| 20260905213027 | 59 | 41 | 0.9 | 3.5 | 0.00 | 0.00 | 0.00 | 64 | 1021.4 |
| 20260905212527 | 59 | 25 | 0.9 | 2.6 | 0.00 | 0.00 | 0.00 | 64 | 1021.4 |
| 20260905212027 | 59 | 7 | 0.9 | 2.6 | 0.00 | 0.00 | 0.00 | 64 | 1021.3 |
| 20260905211506 | 59 | 7 | 1.7 | 4.3 | 0.00 | 0.00 | 0.00 | 63 | 1021.3 |
| 20260905211006 | 59 | 26 | 1.7 | 4.3 | 0.00 | 0.00 | 0.00 | 63 | 1021.2 |
| 20260905210506 | 59 | 45 | 0.9 | 4.3 | 0.00 | 0.00 | 0.00 | 63 | 1021.1 |
| 20260905210006 | 59 | 35 | 1.7 | 4.3 | 0.00 | 0.00 | 0.00 | 63 | 1021.1 |
| 20260905205506 | 59 | 34 | 1.7 | 4.3 | 0.00 | 0.00 | 0.00 | 63 | 1021.1 |
| 20260905205006 | 59 | 42 | 1.7 | 3.5 | 0.00 | 0.00 | 0.00 | 63 | 1021.0 |
| 20260905204506 | 59 | 33 | 2.6 | 4.3 | 0.00 | 0.00 | 0.00 | 63 | 1021.0 |
| 20260905204027 | 59 | 29 | 2.6 | 4.3 | 0.00 | 0.00 | 0.00 | 62 | 1021.1 |
| 20260905203506 | 60 | 31 | 0.9 | 3.5 | 0.00 | 0.00 | 0.00 | 62 | 1021.1 |
| 20260905203006 | 60 | 79 | 0.9 | 3.5 | 0.00 | 0.00 | 0.00 | 62 | 1021.1 |
| 20260905202506 | 60 | 58 | 1.7 | 4.3 | 0.00 | 0.00 | 0.00 | 62 | 1021.2 |
| 20260905202006 | 60 | 25 | 0.9 | 4.3 | 0.00 | 0.00 | 0.00 | 62 | 1021.1 |
| 20260905201506 | 60 | 11 | 0.9 | 3.5 | 0.00 | 0.00 | 0.00 | 62 | 1021.2 |
| 20260905201027 | 60 | 30 | 0.9 | 3.5 | 0.00 | 0.00 | 0.00 | 62 | 1021.2 |
| 20260905200506 | 60 | 45 | 0.9 | 3.5 | 0.00 | 0.00 | 0.00 | 61 | 1021.2 |
| 20260905200006 | 60 | 70 | 0.9 | 2.6 | 0.00 | 0.00 | 0.00 | 61 | 1021.2 |
| 20260905195506 | 60 | 41 | 1.7 | 3.5 | 0.00 | 0.00 | 0.00 | 61 | 1021.0 |
| 20260905195006 | 60 | 22 | 1.7 | 3.5 | 0.00 | 0.00 | 0.00 | 61 | 1021.2 |
| 20260905194506 | 60 | 38 | 0.0 | 2.6 | 0.00 | 0.00 | 0.00 | 61 | 1021.3 |
| 20260905194006 | 60 | 43 | 0.9 | 2.6 | 0.00 | 0.00 | 0.00 | 61 | 1021.1 |
| 20260905193506 | 61 | 319 | 1.7 | 3.5 | 0.00 | 0.00 | 0.00 | 61 | 1021.1 |
| 20260905193006 | 61 | 303 | 1.7 | 3.5 | 0.00 | 0.00 | 0.00 | 60 | 1021.0 |
| 20260905192506 | 61 | 3 | 1.7 | 4.3 | 0.00 | 0.00 | 0.00 | 60 | 1021.0 |
| 20260905192006 | 61 | 22 | 1.7 | 4.3 | 0.00 | 0.00 | 0.00 | 60 | 1021.0 |
| 20260905191506 | 62 | 45 | 0.9 | 2.6 | 0.00 | 0.00 | 0.00 | 59 | 1021.0 |
| 20260905191006 | 62 | 88 | 0.9 | 1.7 | 0.00 | 0.00 | 0.00 | 59 | 1021.0 |
| 20260905190527 | 62 | 47 | 0.9 | 3.5 | 0.00 | 0.00 | 0.00 | 58 | 1020.9 |
| 20260905190005 | 62 | 29 | 1.7 | 3.5 | 0.00 | 0.00 | 0.00 | 57 | 1020.9 |
| 20260905185505 | 62 | 34 | 1.7 | 3.5 | 0.00 | 0.00 | 0.00 | 57 | 1020.9 |
| 20260905185006 | 63 | 53 | 0.9 | 4.3 | 0.00 | 0.00 | 0.00 | 57 | 1020.8 |
| 20260905184506 | 63 | 36 | 1.7 | 6.1 | 0.00 | 0.00 | 0.00 | 56 | 1020.8 |
| 20260905184027 | 63 | 40 | 2.6 | 6.1 | 0.00 | 0.00 | 0.00 | 55 | 1020.6 |
| 20260905183506 | 64 | 64 | 1.7 | 4.3 | 0.00 | 0.00 | 0.00 | 54 | 1020.6 |
| 20260905183005 | 64 | 50 | 1.7 | 3.5 | 0.00 | 0.00 | 0.00 | 54 | 1020.6 |
| 20260905182505 | 64 | 47 | 1.7 | 6.1 | 0.00 | 0.00 | 0.00 | 53 | 1020.5 |
| 20260905182005 | 65 | 43 | 2.6 | 6.1 | 0.00 | 0.00 | 0.00 | 53 | 1020.4 |
| 20260905181505 | 65 | 38 | 3.5 | 6.1 | 0.00 | 0.00 | 0.00 | 52 | 1020.3 |
| 20260905181005 | 66 | 42 | 1.7 | 4.3 | 0.00 | 0.00 | 0.00 | 49 | 1020.3 |
| 20260905180505 | 66 | 63 | 0.9 | 2.6 | 0.00 | 0.00 | 0.00 | 47 | 1020.3 |
| 20260905180005 | 66 | 149 | 0.9 | 3.5 | 0.00 | 0.00 | 0.00 | 45 | 1020.1 |
| 20260905175505 | 67 | 176 | 0.9 | 3.5 | 0.00 | 0.00 | 0.00 | 45 | 1020.1 |
| 20260905175005 | 67 | 186 | 1.7 | 3.5 | 0.00 | 0.00 | 0.00 | 45 | 1019.9 |
| 20260905174526 | 67 | 202 | 0.9 | 3.5 | 0.00 | 0.00 | 0.00 | 44 | 1020.0 |
| 20260905174005 | 67 | 192 | 1.7 | 4.3 | 0.00 | 0.00 | 0.00 | 44 | 1019.9 |
| 20260905173505 | 68 | 178 | 1.7 | 4.3 | 0.00 | 0.00 | 0.00 | 44 | 1019.9 |
| 20260905173005 | 68 | 184 | 1.7 | 6.1 | 0.00 | 0.00 | 0.00 | 43 | 1019.7 |
| 20260905172505 | 68 | 200 | 2.6 | 6.1 | 0.00 | 0.00 | 0.00 | 43 | 1019.7 |
| 20260905172005 | 69 | 200 | 2.6 | 6.1 | 0.00 | 0.00 | 0.00 | 43 | 1019.7 |
| 20260905171505 | 69 | 193 | 2.6 | 6.1 | 0.00 | 0.00 | 0.00 | 43 | 1019.6 |
| 20260905171005 | 69 | 194 | 2.6 | 6.1 | 0.00 | 0.00 | 0.00 | 43 | 1019.6 |
| 20260905170505 | 69 | 194 | 2.6 | 5.2 | 0.00 | 0.00 | 0.00 | 42 | 1019.5 |
| 20260905170005 | 70 | 203 | 2.6 | 7.0 | 0.00 | 0.00 | 0.00 | 42 | 1019.4 |
| 20260905165505 | 70 | 207 | 2.6 | 7.0 | 0.00 | 0.00 | 0.00 | 42 | 1019.2 |
| 20260905165026 | 70 | 195 | 1.7 | 4.3 | 0.00 | 0.00 | 0.00 | 42 | 1019.3 |
| 20260905164505 | 70 | 212 | 2.6 | 5.2 | 0.00 | 0.00 | 0.00 | 41 | 1019.3 |
| 20260905164005 | 70 | 242 | 4.3 | 9.6 | 0.00 | 0.00 | 0.00 | 41 | 1019.3 |
| 20260905163505 | 70 | 264 | 5.2 | 9.6 | 0.00 | 0.00 | 0.00 | 41 | 1019.1 |
| 20260905163005 | 71 | 281 | 5.2 | 9.6 | 0.00 | 0.00 | 0.00 | 41 | 1019.1 |
| 20260905162505 | 71 | 273 | 5.2 | 9.6 | 0.00 | 0.00 | 0.00 | 41 | 1019.1 |
| 20260905162005 | 71 | 251 | 5.2 | 9.6 | 0.00 | 0.00 | 0.00 | 41 | 1019.2 |
| 20260905161505 | 71 | 238 | 6.1 | 13.0 | 0.00 | 0.00 | 0.00 | 40 | 1019.1 |
| 20260905161005 | 71 | 246 | 6.1 | 13.0 | 0.00 | 0.00 | 0.00 | 40 | 1019.0 |
| 20260905160526 | 71 | 268 | 6.1 | 10.4 | 0.00 | 0.00 | 0.00 | 40 | 1018.9 |
| 20260905160005 | 71 | 249 | 6.1 | 12.2 | 0.00 | 0.00 | 0.00 | 40 | 1018.9 |
| 20260905155505 | 71 | 255 | 7.0 | 14.8 | 0.00 | 0.00 | 0.00 | 40 | 1019.0 |
| 20260905155026 | 71 | 243 | 7.8 | 14.8 | 0.00 | 0.00 | 0.00 | 39 | 1018.9 |
| 20260905154505 | 72 | 227 | 7.0 | 13.0 | 0.00 | 0.00 | 0.00 | 39 | 1018.9 |
| 20260905154004 | 72 | 231 | 7.0 | 11.3 | 0.00 | 0.00 | 0.00 | 39 | 1018.9 |
| 20260905153505 | 72 | 210 | 7.0 | 12.2 | 0.00 | 0.00 | 0.00 | 39 | 1018.9 |
| 20260905153004 | 72 | 224 | 7.8 | 12.2 | 0.00 | 0.00 | 0.00 | 38 | 1018.7 |
| 20260905152504 | 72 | 248 | 7.0 | 12.2 | 0.00 | 0.00 | 0.00 | 37 | 1018.6 |
| 20260905152005 | 72 | 247 | 6.1 | 11.3 | 0.00 | 0.00 | 0.00 | 38 | 1018.8 |
| 20260905151505 | 72 | 224 | 5.2 | 9.6 | 0.00 | 0.00 | 0.00 | 38 | 1018.8 |
| 20260905151005 | 72 | 215 | 5.2 | 9.6 | 0.00 | 0.00 | 0.00 | 37 | 1018.9 |
| 20260905150505 | 72 | 233 | 7.0 | 12.2 | 0.00 | 0.00 | 0.00 | 37 | 1018.8 |
| 20260905150005 | 72 | 223 | 7.0 | 12.2 | 0.00 | 0.00 | 0.00 | 36 | 1018.9 |
| 20260905145504 | 73 | 190 | 7.0 | 12.2 | 0.00 | 0.00 | 0.00 | 37 | 1018.9 |
| 20260905145004 | 73 | 192 | 7.8 | 12.2 | 0.00 | 0.00 | 0.00 | 37 | 1018.8 |
| 20260905144504 | 73 | 190 | 8.7 | 13.0 | 0.00 | 0.00 | 0.00 | 36 | 1018.7 |
| 20260905144005 | 73 | 181 | 9.6 | 14.8 | 0.00 | 0.00 | 0.00 | 36 | 1018.8 |
| 20260905143505 | 73 | 204 | 9.6 | 14.8 | 0.00 | 0.00 | 0.00 | 36 | 1018.7 |
| 20260905143004 | 73 | 236 | 8.7 | 13.0 | 0.00 | 0.00 | 0.00 | 35 | 1018.8 |
| 20260905142504 | 73 | 228 | 7.8 | 13.0 | 0.00 | 0.00 | 0.00 | 35 | 1018.9 |
| 20260905142005 | 73 | 257 | 8.7 | 13.0 | 0.00 | 0.00 | 0.00 | 35 | 1018.9 |
| 20260905141505 | 73 | 248 | 9.6 | 13.9 | 0.00 | 0.00 | 0.00 | 34 | 1018.8 |
| 20260905141005 | 73 | 231 | 8.7 | 13.9 | 0.00 | 0.00 | 0.00 | 35 | 1018.9 |
| 20260905140505 | 73 | 239 | 7.8 | 14.8 | 0.00 | 0.00 | 0.00 | 35 | 1018.7 |
| 20260905140026 | 73 | 231 | 7.8 | 14.8 | 0.00 | 0.00 | 0.00 | 35 | 1018.7 |
| 20260905135505 | 73 | 257 | 7.8 | 13.9 | 0.00 | 0.00 | 0.00 | 34 | 1018.5 |
| 20260905135005 | 74 | 269 | 7.0 | 13.0 | 0.00 | 0.00 | 0.00 | 33 | 1018.4 |
| 20260905134504 | 74 | 242 | 7.0 | 12.2 | 0.00 | 0.00 | 0.00 | 33 | 1018.4 |
| 20260905134004 | 74 | 230 | 7.8 | 13.9 | 0.00 | 0.00 | 0.00 | 34 | 1018.5 |
| 20260905133505 | 74 | 247 | 8.7 | 17.4 | 0.00 | 0.00 | 0.00 | 33 | 1018.5 |
| 20260905133025 | 74 | 242 | 8.7 | 17.4 | 0.00 | 0.00 | 0.00 | 33 | 1018.6 |
| 20260905132525 | 74 | 251 | 8.7 | 13.0 | 0.00 | 0.00 | 0.00 | 31 | 1018.6 |
| 20260905132004 | 74 | 249 | 7.8 | 13.9 | 0.00 | 0.00 | 0.00 | 30 | 1018.4 |
| 20260905131504 | 75 | 240 | 6.1 | 13.9 | 0.00 | 0.00 | 0.00 | 30 | 1018.4 |
| 20260905131004 | 75 | 263 | 4.3 | 8.7 | 0.00 | 0.00 | 0.00 | 30 | 1018.3 |
| 20260905130505 | 74 | 241 | 5.2 | 9.6 | 0.00 | 0.00 | 0.00 | 31 | 1018.2 |
| 20260905130025 | 74 | 240 | 6.1 | 13.0 | 0.00 | 0.00 | 0.00 | 33 | 1018.2 |
| 20260905125504 | 74 | 255 | 7.0 | 13.0 | 0.00 | 0.00 | 0.00 | 35 | 1018.1 |
| 20260905125004 | 74 | 239 | 7.8 | 13.9 | 0.00 | 0.00 | 0.00 | 36 | 1018.2 |
| 20260905124525 | 74 | 209 | 7.8 | 13.9 | 0.00 | 0.00 | 0.00 | 36 | 1018.3 |
| 20260905124004 | 73 | 223 | 7.8 | 15.6 | 0.00 | 0.00 | 0.00 | 38 | 1018.2 |
| 20260905123504 | 73 | 236 | 8.7 | 15.6 | 0.00 | 0.00 | 0.00 | 36 | 1018.2 |
| 20260905123004 | 73 | 216 | 8.7 | 17.4 | 0.00 | 0.00 | 0.00 | 38 | 1018.2 |
| 20260905122504 | 73 | 222 | 9.6 | 17.4 | 0.00 | 0.00 | 0.00 | 38 | 1018.2 |
| 20260905122004 | 72 | 219 | 8.7 | 13.9 | 0.00 | 0.00 | 0.00 | 40 | 1018.3 |
| 20260905121525 | 72 | 221 | 7.8 | 13.9 | 0.00 | 0.00 | 0.00 | 41 | 1018.3 |
| 20260905121004 | 72 | 241 | 7.8 | 14.8 | 0.00 | 0.00 | 0.00 | 40 | 1018.3 |
| 20260905120504 | 72 | 226 | 7.8 | 14.8 | 0.00 | 0.00 | 0.00 | 41 | 1018.4 |
| 20260905120004 | 71 | 212 | 7.8 | 13.0 | 0.00 | 0.00 | 0.00 | 41 | 1018.5 |
| 20260905115504 | 71 | 215 | 7.8 | 13.9 | 0.00 | 0.00 | 0.00 | 43 | 1018.4 |
| 20260905115004 | 71 | 230 | 7.8 | 13.9 | 0.00 | 0.00 | 0.00 | 44 | 1018.4 |
| 20260905114504 | 70 | 237 | 7.0 | 11.3 | 0.00 | 0.00 | 0.00 | 47 | 1018.5 |
| 20260905114004 | 69 | 216 | 6.1 | 11.3 | 0.00 | 0.00 | 0.00 | 48 | 1018.5 |
| 20260905113504 | 69 | 236 | 7.8 | 13.0 | 0.00 | 0.00 | 0.00 | 47 | 1018.6 |
| 20260905113004 | 70 | 241 | 8.7 | 13.0 | 0.00 | 0.00 | 0.00 | 47 | 1018.6 |
| 20260905112504 | 70 | 228 | 8.7 | 13.9 | 0.00 | 0.00 | 0.00 | 46 | 1018.6 |
| 20260905112004 | 70 | 234 | 9.6 | 14.8 | 0.00 | 0.00 | 0.00 | 44 | 1018.6 |
| 20260905111504 | 70 | 242 | 9.6 | 14.8 | 0.00 | 0.00 | 0.00 | 44 | 1018.6 |
| 20260905111004 | 70 | 244 | 7.8 | 14.8 | 0.00 | 0.00 | 0.00 | 45 | 1018.6 |
| 20260905110504 | 70 | 241 | 7.0 | 13.0 | 0.00 | 0.00 | 0.00 | 47 | 1018.7 |
| 20260905110025 | 70 | 223 | 7.0 | 13.0 | 0.00 | 0.00 | 0.00 | 47 | 1018.7 |
| 20260905105504 | 69 | 214 | 7.8 | 15.6 | 0.00 | 0.00 | 0.00 | 50 | 1018.6 |
| 20260905105025 | 70 | 204 | 8.7 | 15.6 | 0.00 | 0.00 | 0.00 | 50 | 1018.7 |
| 20260905104504 | 69 | 175 | 7.0 | 13.0 | 0.00 | 0.00 | 0.00 | 50 | 1018.8 |
| 20260905104004 | 69 | 187 | 7.0 | 12.2 | 0.00 | 0.00 | 0.00 | 50 | 1018.7 |
| 20260905103504 | 69 | 222 | 6.1 | 12.2 | 0.00 | 0.00 | 0.00 | 51 | 1018.8 |
| 20260905103004 | 69 | 256 | 6.1 | 13.0 | 0.00 | 0.00 | 0.00 | 51 | 1019.0 |
| 20260905102525 | 69 | 255 | 6.1 | 13.0 | 0.00 | 0.00 | 0.00 | 51 | 1019.1 |
| 20260905102004 | 69 | 270 | 7.8 | 13.9 | 0.00 | 0.00 | 0.00 | 51 | 1019.1 |
| 20260905101525 | 69 | 271 | 10.4 | 16.5 | 0.00 | 0.00 | 0.00 | 50 | 1019.4 |
| 20260905101004 | 69 | 270 | 11.3 | 19.1 | 0.00 | 0.00 | 0.00 | 50 | 1018.8 |
| 20260905100504 | 70 | 286 | 10.4 | 19.1 | 0.00 | 0.00 | 0.00 | 50 | 1019.2 |
| 20260905100004 | 70 | 283 | 7.0 | 19.1 | 0.00 | 0.00 | 0.00 | 50 | 1019.2 |
| 20260905095504 | 70 | 278 | 5.2 | 7.8 | 0.00 | 0.00 | 0.00 | 50 | 1018.8 |
| 20260905095004 | 70 | 257 | 4.3 | 7.8 | 0.00 | 0.00 | 0.00 | 50 | 1018.6 |
| 20260905094504 | 69 | 218 | 4.3 | 10.4 | 0.00 | 0.00 | 0.00 | 51 | 1018.5 |
| 20260905094025 | 69 | 215 | 5.2 | 10.4 | 0.00 | 0.00 | 0.00 | 53 | 1018.2 |
| 20260905093503 | 69 | 225 | 5.2 | 8.7 | 0.00 | 0.00 | 0.00 | 53 | 1018.2 |
| 20260905093004 | 69 | 215 | 5.2 | 8.7 | 0.00 | 0.00 | 0.00 | 53 | 1018.1 |
| 20260905092504 | 68 | 206 | 4.3 | 7.0 | 0.00 | 0.00 | 0.00 | 55 | 1018.1 |
| 20260905092004 | 68 | 224 | 3.5 | 7.0 | 0.00 | 0.00 | 0.00 | 56 | 1018.3 |
| 20260905091504 | 68 | 251 | 3.5 | 8.7 | 0.00 | 0.00 | 0.00 | 56 | 1018.2 |
| 20260905091025 | 68 | 232 | 4.3 | 8.7 | 0.00 | 0.00 | 0.00 | 55 | 1018.3 |
| 20260905090503 | 68 | 227 | 6.1 | 13.0 | 0.00 | 0.00 | 0.00 | 55 | 1018.7 |
| 20260905090004 | 68 | 242 | 6.1 | 13.0 | 0.00 | 0.00 | 0.00 | 55 | 1018.9 |
| 20260905085504 | 68 | 254 | 7.0 | 10.4 | 0.00 | 0.00 | 0.00 | 54 | 1018.7 |
| 20260905085024 | 68 | 233 | 7.0 | 11.3 | 0.00 | 0.00 | 0.00 | 56 | 1018.4 |
| 20260905084504 | 68 | 232 | 7.0 | 12.2 | 0.00 | 0.00 | 0.00 | 57 | 1018.9 |
| 20260905084025 | 68 | 231 | 7.8 | 13.0 | 0.00 | 0.00 | 0.00 | 57 | 1018.9 |
| 20260905083504 | 68 | 239 | 8.7 | 13.0 | 0.00 | 0.00 | 0.00 | 55 | 1019.2 |
| 20260905083003 | 68 | 263 | 7.8 | 13.0 | 0.00 | 0.00 | 0.00 | 53 | 1019.3 |
| 20260905082503 | 69 | 251 | 10.4 | 19.1 | 0.00 | 0.00 | 0.00 | 53 | 1019.1 |
| 20260905082004 | 69 | 240 | 11.3 | 19.1 | 0.00 | 0.00 | 0.00 | 51 | 1018.8 |
| 20260905081525 | 70 | 238 | 10.4 | 16.5 | 0.00 | 0.00 | 0.00 | 50 | 1018.9 |
| 20260905081003 | 69 | 234 | 8.7 | 16.5 | 0.00 | 0.00 | 0.00 | 51 | 1019.0 |
| 20260905080503 | 69 | 242 | 6.1 | 13.0 | 0.00 | 0.00 | 0.00 | 52 | 1018.9 |
| 20260905080003 | 69 | 230 | 3.5 | 7.0 | 0.00 | 0.00 | 0.00 | 53 | 1018.6 |
| 20260905075503 | 69 | 204 | 3.5 | 7.0 | 0.00 | 0.00 | 0.00 | 53 | 1018.3 |
| 20260905075003 | 68 | 205 | 3.5 | 7.0 | 0.00 | 0.00 | 0.00 | 53 | 1017.9 |
| 20260905074504 | 68 | 205 | 4.3 | 7.0 | 0.00 | 0.00 | 0.00 | 52 | 1018.0 |
| 20260905074004 | 68 | 207 | 5.2 | 8.7 | 0.00 | 0.00 | 0.00 | 52 | 1018.1 |
| 20260905073503 | 68 | 203 | 5.2 | 11.3 | 0.00 | 0.00 | 0.00 | 52 | 1018.4 |
| 20260905073003 | 68 | 215 | 6.1 | 12.2 | 0.00 | 0.00 | 0.00 | 52 | 1018.2 |
| 20260905072524 | 69 | 220 | 6.1 | 12.2 | 0.00 | 0.00 | 0.00 | 52 | 1018.6 |
| 20260905072003 | 68 | 197 | 4.3 | 7.0 | 0.00 | 0.00 | 0.00 | 57 | 1018.4 |
| 20260905071503 | 68 | 223 | 3.5 | 7.8 | 0.00 | 0.00 | 0.00 | 60 | 1017.9 |
| 20260905071003 | 67 | 269 | 4.3 | 9.6 | 0.00 | 0.00 | 0.00 | 58 | 1018.1 |
| 20260905070503 | 66 | 255 | 5.2 | 9.6 | 0.00 | 0.00 | 0.00 | 62 | 1018.3 |
| 20260905070004 | 64 | 203 | 2.6 | 8.7 | 0.00 | 0.00 | 0.00 | 74 | 1018.1 |
| 20260905065503 | 64 | 187 | 0.0 | 2.6 | 0.00 | 0.00 | 0.00 | 76 | 1017.9 |
| 20260905065003 | 63 | 100 | 0.9 | 3.5 | 0.00 | 0.00 | 0.00 | 78 | 1017.8 |
| 20260905064503 | 63 | 37 | 1.7 | 3.5 | 0.00 | 0.00 | 0.00 | 78 | 1017.7 |
| 20260905064003 | 62 | 11 | 1.7 | 3.5 | 0.00 | 0.00 | 0.00 | 80 | 1017.7 |
| 20260905063503 | 62 | 225 | 2.6 | 5.2 | 0.00 | 0.00 | 0.00 | 82 | 1017.7 |
| 20260905063003 | 61 | 193 | 3.5 | 6.1 | 0.00 | 0.00 | 0.00 | 83 | 1017.8 |
| 20260905062503 | 61 | 182 | 3.5 | 6.1 | 0.00 | 0.00 | 0.00 | 83 | 1017.5 |
| 20260905062028 | 61 | 178 | 1.7 | 5.2 | 0.00 | 0.00 | 0.00 | 82 | 1017.6 |
| 20260905061528 | 60 | 89 | 0.9 | 3.5 | 0.00 | 0.00 | 0.00 | 82 | 1017.8 |
| 20260905061008 | 60 | 158 | 0.9 | 2.6 | 0.00 | 0.00 | 0.00 | 83 | 1017.5 |
| 20260905060507 | 60 | 112 | 0.9 | 3.5 | 0.00 | 0.00 | 0.00 | 83 | 1017.3 |
| 20260905060028 | 60 | 52 | 0.9 | 3.5 | 0.00 | 0.00 | 0.00 | 83 | 1017.1 |
| 20260905055507 | 60 | 74 | 0.9 | 2.6 | 0.00 | 0.00 | 0.00 | 82 | 1016.9 |
| 20260905055007 | 59 | 39 | 0.9 | 1.7 | 0.00 | 0.00 | 0.00 | 82 | 1017.2 |
| 20260905054507 | 59 | 4 | 0.9 | 1.7 | 0.00 | 0.00 | 0.00 | 82 | 1017.3 |
| 20260905054007 | 59 | 6 | 0.9 | 1.7 | 0.00 | 0.00 | 0.00 | 82 | 1017.1 |
| 20260905053528 | 59 | 76 | 0.9 | 1.7 | 0.00 | 0.00 | 0.00 | 82 | 1017.0 |
| 20260905053028 | 58 | 96 | 0.9 | 1.7 | 0.00 | 0.00 | 0.00 | 82 | 1016.8 |
| 20260905052507 | 58 | 51 | 0.9 | 1.7 | 0.00 | 0.00 | 0.00 | 83 | 1017.0 |
| 20260905052007 | 58 | 61 | 0.9 | 1.7 | 0.00 | 0.00 | 0.00 | 83 | 1016.9 |
| 20260905051507 | 58 | 51 | 0.9 | 1.7 | 0.00 | 0.00 | 0.00 | 84 | 1016.8 |
| 20260905051007 | 58 | 8 | 0.9 | 1.7 | 0.00 | 0.00 | 0.00 | 84 | 1016.9 |
| 20260905050507 | 57 | 41 | 0.9 | 2.6 | 0.00 | 0.00 | 0.00 | 84 | 1016.9 |
| 20260905050007 | 57 | 52 | 0.0 | 2.6 | 0.00 | 0.00 | 0.00 | 84 | 1016.5 |
| 20260905045507 | 57 | 233 | 0.0 | 0.9 | 0.00 | 0.00 | 0.00 | 84 | 1016.5 |
| 20260905045007 | 57 | 204 | 0.9 | 3.5 | 0.00 | 0.00 | 0.00 | 84 | 1016.5 |
| 20260905044507 | 56 | 210 | 0.9 | 3.5 | 0.00 | 0.00 | 0.00 | 84 | 1016.5 |
| 20260905044007 | 56 | 227 | 0.9 | 1.7 | 0.00 | 0.00 | 0.00 | 83 | 1016.1 |
| 20260905043507 | 57 | 195 | 0.9 | 2.6 | 0.00 | 0.00 | 0.00 | 83 | 1016.0 |
| 20260905043007 | 57 | 127 | 0.9 | 2.6 | 0.00 | 0.00 | 0.00 | 83 | 1015.8 |
| 20260905042507 | 57 | 71 | 1.7 | 3.5 | 0.00 | 0.00 | 0.00 | 83 | 1015.6 |
| 20260905042007 | 57 | 24 | 1.7 | 3.5 | 0.00 | 0.00 | 0.00 | 83 | 1015.7 |
| 20260905041507 | 57 | 357 | 0.9 | 3.5 | 0.00 | 0.00 | 0.00 | 84 | 1015.7 |
| 20260905041007 | 57 | 210 | 0.9 | 2.6 | 0.00 | 0.00 | 0.00 | 84 | 1016.0 |
| 20260905040507 | 57 | 176 | 1.7 | 3.5 | 0.00 | 0.00 | 0.00 | 84 | 1016.1 |
| 20260905040007 | 57 | 159 | 1.7 | 3.5 | 0.00 | 0.00 | 0.00 | 84 | 1016.1 |
| 20260905035528 | 57 | 334 | 1.7 | 3.5 | 0.00 | 0.00 | 0.00 | 84 | 1016.1 |
| 20260905035007 | 57 | 313 | 1.7 | 3.5 | 0.00 | 0.00 | 0.00 | 84 | 1016.1 |
| 20260905034507 | 57 | 315 | 0.9 | 2.6 | 0.00 | 0.00 | 0.00 | 84 | 1016.2 |
| 20260905034007 | 57 | 262 | 0.9 | 3.5 | 0.00 | 0.00 | 0.00 | 83 | 1016.2 |
| 20260905033507 | 57 | 208 | 0.9 | 3.5 | 0.00 | 0.00 | 0.00 | 83 | 1015.8 |
| 20260905033007 | 57 | 218 | 1.7 | 3.5 | 0.00 | 0.00 | 0.00 | 83 | 1016.0 |
| 20260905032507 | 57 | 195 | 1.7 | 4.3 | 0.00 | 0.00 | 0.00 | 83 | 1015.7 |
| 20260905032007 | 57 | 139 | 1.7 | 4.3 | 0.00 | 0.00 | 0.00 | 83 | 1015.9 |
| 20260905031507 | 57 | 26 | 0.9 | 2.6 | 0.00 | 0.00 | 0.00 | 83 | 1015.7 |
| 20260905031028 | 57 | 31 | 1.7 | 3.5 | 0.00 | 0.00 | 0.00 | 83 | 1015.7 |
| 20260905030507 | 57 | 39 | 1.7 | 3.5 | 0.00 | 0.00 | 0.00 | 83 | 1015.8 |
| 20260905030006 | 57 | 38 | 1.7 | 3.5 | 0.00 | 0.00 | 0.00 | 83 | 1015.6 |
| 20260905025528 | 57 | 27 | 1.7 | 3.5 | 0.00 | 0.00 | 0.00 | 83 | 1015.9 |
| 20260905025007 | 57 | 18 | 0.0 | 1.7 | 0.00 | 0.00 | 0.00 | 83 | 1015.8 |
| 20260905024507 | 57 | 103 | 0.0 | 1.7 | 0.00 | 0.00 | 0.00 | 84 | 1015.7 |
| 20260905024006 | 57 | 155 | 0.9 | 1.7 | 0.00 | 0.00 | 0.00 | 84 | 1015.7 |
| 20260905023507 | 56 | 173 | 0.0 | 1.7 | 0.00 | 0.00 | 0.00 | 84 | 1015.6 |
| 20260905023007 | 56 | 180 | 0.0 | 1.7 | 0.00 | 0.00 | 0.00 | 85 | 1015.6 |
| 20260905022507 | 56 | 180 | 0.0 | 1.7 | 0.00 | 0.00 | 0.00 | 85 | 1015.6 |
| 20260905022027 | 56 | 180 | 0.0 | 0.9 | 0.00 | 0.00 | 0.00 | 88 | 1015.6 |
| 20260905021507 | 56 | 180 | 0.0 | 0.9 | 0.00 | 0.00 | 0.00 | 88 | 1015.7 |
| 20260905021007 | 56 | 180 | 0.0 | 1.7 | 0.00 | 0.00 | 0.00 | 87 | 1015.7 |
| 20260905020507 | 56 | 189 | 0.9 | 1.7 | 0.00 | 0.00 | 0.00 | 87 | 1015.7 |
| 20260905020007 | 56 | 187 | 0.9 | 1.7 | 0.00 | 0.00 | 0.00 | 87 | 1015.8 |
| 20260905015507 | 56 | 191 | 0.9 | 1.7 | 0.00 | 0.00 | 0.00 | 87 | 1015.9 |
| 20260905015007 | 56 | 208 | 0.0 | 1.7 | 0.00 | 0.00 | 0.00 | 87 | 1015.7 |
| 20260905014507 | 56 | 205 | 0.0 | 1.7 | 0.00 | 0.00 | 0.00 | 86 | 1015.6 |
| 20260905014006 | 56 | 180 | 0.0 | 1.7 | 0.00 | 0.00 | 0.00 | 86 | 1015.7 |
| 20260905013506 | 56 | 180 | 0.9 | 1.7 | 0.00 | 0.00 | 0.00 | 86 | 1015.8 |
| 20260905013006 | 56 | 142 | 0.0 | 1.7 | 0.00 | 0.00 | 0.00 | 82 | 1015.9 |
| 20260905012528 | 56 | 71 | 0.0 | 1.7 | 0.00 | 0.00 | 0.00 | 82 | 1015.7 |
| 20260905012007 | 56 | 77 | 0.0 | 1.7 | 0.00 | 0.00 | 0.00 | 82 | 1015.8 |
| 20260905011507 | 57 | 102 | 0.0 | 1.7 | 0.00 | 0.00 | 0.00 | 82 | 1015.9 |
| 20260905011007 | 57 | 128 | 0.9 | 1.7 | 0.00 | 0.00 | 0.00 | 82 | 1015.7 |
| 20260905010506 | 57 | 30 | 0.9 | 2.6 | 0.00 | 0.00 | 0.00 | 82 | 1015.8 |
| 20260905010006 | 57 | 12 | 1.7 | 2.6 | 0.00 | 0.00 | 0.00 | 82 | 1015.8 |
| 20260905005506 | 57 | 27 | 1.7 | 2.6 | 0.00 | 0.00 | 0.00 | 82 | 1015.8 |
| 20260905005006 | 57 | 39 | 0.9 | 2.6 | 0.00 | 0.00 | 0.00 | 83 | 1015.6 |
| 20260905004506 | 57 | 50 | 0.9 | 1.7 | 0.00 | 0.00 | 0.00 | 83 | 1015.8 |
| 20260905004006 | 57 | 107 | 0.9 | 1.7 | 0.00 | 0.00 | 0.00 | 82 | 1015.9 |
| 20260905003506 | 57 | 173 | 0.9 | 2.6 | 0.00 | 0.00 | 0.00 | 82 | 1016.0 |
| 20260905003006 | 57 | 194 | 0.9 | 2.6 | 0.00 | 0.00 | 0.00 | 82 | 1015.9 |
| 20260905002507 | 57 | 234 | 0.0 | 1.7 | 0.00 | 0.00 | 0.00 | 83 | 1015.9 |
| 20260905002006 | 57 | 225 | 0.0 | 1.7 | 0.00 | 0.00 | 0.00 | 83 | 1015.7 |
| 20260905001506 | 57 | 0 | 0.0 | 0.0 | 0.00 | 0.00 | 0.00 | 83 | 1015.8 |
| 20260905001006 | 57 | 0 | 0.0 | 0.0 | 0.00 | 0.00 | 0.00 | 83 | 1015.7 |
| 20260905000527 | 57 | 0 | 0.0 | 0.0 | 0.00 | 0.00 | 0.00 | 83 | 1015.8 |
| 20260905000006 | 57 | 225 | 0.0 | 0.9 | 0.00 | 0.00 | 0.00 | 83 | 1015.9 |
| 20260904235506 | 57 | 214 | 0.0 | 1.7 | 0.00 | 0.00 | 0.00 | 82 | 1015.9 |
| 20260904235006 | 58 | 197 | 0.9 | 1.7 | 0.00 | 0.00 | 0.00 | 82 | 1016.0 |
| 20260904234506 | 58 | 180 | 0.0 | 1.7 | 0.00 | 0.00 | 0.00 | 82 | 1016.1 |
| 20260904234027 | 58 | 179 | 0.9 | 1.7 | 0.00 | 0.00 | 0.00 | 81 | 1016.1 |
| 20260904233506 | 58 | 156 | 0.9 | 1.7 | 0.00 | 0.00 | 0.00 | 81 | 1016.0 |
| 20260904233006 | 58 | 76 | 0.9 | 2.6 | 0.00 | 0.00 | 0.00 | 81 | 1016.1 |
| 20260904232527 | 58 | 40 | 0.9 | 2.6 | 0.00 | 0.00 | 0.00 | 82 | 1015.9 |
| 20260904232006 | 58 | 58 | 0.0 | 1.7 | 0.00 | 0.00 | 0.00 | 82 | 1016.1 |
| 20260904231506 | 58 | 76 | 0.0 | 1.7 | 0.00 | 0.00 | 0.00 | 82 | 1016.3 |
| 20260904231006 | 58 | 118 | 0.0 | 1.7 | 0.00 | 0.00 | 0.00 | 82 | 1016.2 |
| 20260904230506 | 58 | 120 | 0.0 | 1.7 | 0.00 | 0.00 | 0.00 | 82 | 1016.3 |
| 20260904230006 | 59 | 135 | 0.0 | 0.9 | 0.00 | 0.00 | 0.00 | 81 | 1016.4 |
| 20260904225527 | 59 | 135 | 0.0 | 1.7 | 0.00 | 0.00 | 0.00 | 81 | 1016.3 |
| 20260904225006 | 59 | 135 | 0.0 | 1.7 | 0.00 | 0.00 | 0.00 | 81 | 1016.4 |
| 20260904224506 | 59 | 135 | 0.0 | 1.7 | 0.00 | 0.00 | 0.00 | 81 | 1016.4 |
| 20260904224006 | 59 | 135 | 0.0 | 0.9 | 0.00 | 0.00 | 0.00 | 81 | 1016.3 |